sat.trackr.live / text

‹ back to catalog

STARLINK-4513

NORAD 53548 · 2022-101X

PAYLOAD ACTIVE UNKNOWN

§ Identity

Operator
Country
US
Launch date
2022-08-19
Launch site
AFETR
Launch vehicle
Mass (kg)
RCS (m²)

Purposes: comms

External: N2YO · Heavens-Above · Gunter

§ Orbital elements

Epoch: 2026-09-19T16:40:13.589472Z

Period
95.44 min
Inclination
53.1599°
Eccentricity
0.0001299
Mean motion
15.08831969 rev/d
Perigee alt
538.9 km
Apogee alt
540.7 km
Semi-major
6,917.9 km
B*
3.5861e-5
RAAN
272.5435°
Arg perigee
70.3542°
Mean anomaly
289.7590°
Rev number
22,559

§ Raw data

STARLINK-45131 53548U 22101X   26262.69460173  .00000283  00000+0  35861-4 0  99942 53548  53.1599 272.5435 0001299  70.3542 289.7590 15.08831969225592

JSON: /api/v1/satellites/53548 · /tle

For live sub-satellite position, see the globe view (requires WebGL).

§ Visibility from observer

Set your observer location to see the next 7 days of passes ≥ 10°. The values pass through the URL so the page stays shareable.

No JS? Fill the form by hand. The geolocation button needs JavaScript.